[[{"header":{"parameterUnit":"m.s-1","parameterCategory":1,"la1":30.2991,"la2":30.254,"lo1":-89.0895,"lo2":-89.0444,"dy":0.0017,"dx":0.0017,"nx":28,"ny":28,"refTime":"2024-10-04T03:00:00:Z","depth":0,"parameterNumber":2,"parameterNumberName":"U-component_of_WINDS"},"data":[0,0,0,0,0,0,0,0,0,0,0,0,0,0,0,0,0,0,0,0,0,0,0,0,0,0,0,0,0,0,0,0,0,0,0,0,0,0,0,0,0,0,0,0,0,0,0,0,0,0,0,0,0,0,0,0,0,0,-3.2374,-3.2379,0,-3.2778,-3.2783,-3.2787,-3.29,-3.2898,-3.2895,-3.2893,-3.3305,-3.3318,-3.3331,0,0,0,0,0,0,0,0,0,0,0,0,0,-3.1698,-3.171,-3.2374,-3.2379,-3.2384,-3.2777,-3.2783,-3.2789,-3.29,-3.2897,-3.2895,-3.2892,-3.3301,-3.3317,-3.3332,0,0,0,0,0,0,0,0,0,0,0,0,0,-3.2036,-3.1714,-3.2373,-3.2487,-3.2501,-3.2776,-3.2783,-3.279,-3.2901,-3.2897,-3.2894,-3.2891,-3.3296,-3.3315,-3.3334,-3.3524,0,0,-3.3395,-3.3403,0,0,0,0,0,0,0,0,-3.2016,-3.206,-3.2465,-3.248,-3.2496,-3.2785,-3.2696,-3.3036,-3.2902,-3.2749,-3.2893,-3.2889,-3.3135,-3.3168,-3.3251,-3.3544,-3.3561,-3.3396,-3.3408,-3.3417,-3.3422,0,0,0,0,0,0,0,-3.1993,-3.2044,-3.2534,-3.2471,-3.249,-3.2518,-3.2562,-3.2761,-3.2956,-3.2762,-3.2771,-3.2818,-3.3143,-3.3232,-3.3261,-3.3567,-3.3396,-3.3413,-3.3425,-3.3433,-3.4036,-3.404,0,0,0,0,0,0,-3.195,-3.2023,-3.2521,-3.2546,-3.2243,-3.2533,-3.2582,-3.2696,-3.2954,-3.2991,-3.282,-3.2821,-3.32,-3.3238,-3.3276,-3.3516,-3.3416,-3.3435,-3.3446,-3.4032,-3.4037,-3.4042,0,0,0,0,0,0,-3.1935,-3.1993,-3.2505,-3.2287,-3.2355,-3.2548,-3.2675,-3.2706,-3.2795,-3.2998,-3.3034,-3.2875,-3.3199,-3.3249,-3.3462,-3.3531,-3.3444,-3.3462,-3.4027,-3.4034,-3.4039,-3.3995,0,0,0,0,0,0,-3.1915,-3.1987,-3.2062,-3.2288,-3.2366,-3.2684,-3.2679,-3.2716,-3.2829,-3.2834,-3.3059,-3.3093,-3.32,-3.3432,-3.3481,-3.3557,-3.3477,-3.4022,-3.403,-3.4037,-3.3991,-3.3999,-3.4006,0,0,0,0,0,-3.1891,-3.2033,-3.2065,-3.2124,-3.2463,-3.2687,-3.2732,-3.2852,-3.2834,-3.291,-3.3041,-3.3086,-3.3516,-3.3453,-3.351,-3.3592,-3.4018,-3.4028,-3.4037,-3.3988,-3.3997,-3.4006,0,0,0,0,0,0,-3.1809,-3.2065,-3.2103,-3.2323,-3.2482,-3.2706,-3.2806,-3.2858,-3.3026,-3.3024,-3.3166,-3.3216,-3.3419,-3.3527,-3.3452,-3.3789,-3.3768,-3.3789,-3.3711,-3.3722,-3.3729,-3.3698,-3.3493,0,0,0,0,0,-3.1817,-3.1978,-3.2193,-3.2366,-3.2444,-3.2611,-3.2713,-3.2792,-3.2963,-3.3031,-3.3178,-3.3341,-3.3514,-3.3624,-3.3794,-3.4008,-3.4058,-3.4092,-3.4099,-3.4104,-3.4121,-3.4242,-3.4259,-3.4073,-3.4073,-3.4073,0,0,-3.1834,-3.1993,-3.2087,-3.2353,-3.2487,-3.265,-3.2667,-3.2839,-3.2962,-3.3057,-3.3268,-3.3381,-3.3573,-3.3787,-3.3889,-3.3884,-3.4184,-3.4117,-3.4119,-3.4133,-3.4253,-3.4271,-3.4286,-3.4079,-3.4078,-3.4077,0,0,-3.1949,-3.2086,-3.2245,-3.2378,-3.258,-3.269,-3.2728,-3.2944,-3.3023,-3.3237,-3.3311,-3.3459,-3.3752,-3.3886,-3.3993,-3.4158,-3.4206,-3.421,-3.4248,-3.4364,-3.4378,-3.4392,-3.445,-3.447,-3.4226,-3.4225,-3.4225,0,-3.1945,-3.2195,-3.232,-3.249,-3.2604,-3.2698,-3.286,-3.2983,-3.3229,-3.3306,-3.3297,-3.3668,-3.3804,-3.405,-3.4091,-3.4174,-3.4221,-3.4184,-3.4366,-3.4381,-3.4396,-3.4453,-3.4475,-3.4225,-3.4225,-3.4225,-3.4225,0,-3.2179,-3.2351,-3.2456,-3.2691,-3.2818,-3.2982,-3.3133,-3.3246,-3.3314,-3.3424,-3.364,-3.3807,-3.4012,-3.4076,-3.4144,-3.4333,-3.4323,-3.4338,-3.4319,-3.441,-3.4466,-3.449,-3.4223,-3.4223,-3.4224,-3.4224,0,0,-3.2254,-3.2557,-3.2593,-3.2701,-3.293,-3.3065,-3.3234,-3.3435,-3.3529,-3.3696,-3.384,-3.4086,-3.4102,-3.4223,-3.4306,-3.4408,-3.4528,-3.4411,-3.4418,-3.4426,-3.4745,-3.4731,-3.4755,-3.4561,-3.4566,-3.457,-3.4729,0,-3.2397,-3.2702,-3.282,-3.3069,-3.3229,-3.332,-3.3467,-3.3623,-3.3731,-3.3883,-3.4002,-3.4174,-3.4182,-3.4256,-3.4361,-3.449,-3.4593,-3.4481,-3.4696,-3.4702,-3.4644,-3.4785,-3.4771,-3.4913,-3.4752,-3.4755,-3.4758,0,-3.2605,-3.2773,-3.3037,-3.3247,-3.3319,-3.3448,-3.3642,-3.3786,-3.3965,-3.4036,-3.4171,-3.4248,-3.4428,-3.4398,-3.4647,-3.4568,-3.4663,-3.474,-3.4749,-3.4772,-3.4735,-3.4811,-3.4962,-3.4982,-3.4794,-3.4791,-3.4789,0,-3.2631,-3.2925,-3.3121,-3.321,-3.346,-3.3549,-3.3657,-3.3832,-3.3945,-3.4114,-3.4189,-3.4376,-3.4479,-3.4622,-3.4747,-3.4714,-3.4985,-3.4965,-3.5048,-3.5045,-3.51,-3.5095,-3.5267,-3.5163,-3.5162,-3.5162,-3.5162,0,-3.2779,-3.2936,-3.3136,-3.3256,-3.3436,-3.357,-3.3744,-3.3858,-3.4013,-3.4157,-3.4248,-3.4381,-3.454,-3.4693,-3.4793,-3.4983,-3.5029,-3.5091,-3.5116,-3.5083,-3.5075,-3.5146,-3.5139,-3.5168,-3.5167,-3.5165,-3.5164,0,-3.2838,-3.2978,-3.3198,-3.3416,-3.3474,-3.3597,-3.3784,-3.3904,-3.4016,-3.4197,-3.4247,-3.4423,-3.4608,-3.4748,-3.4988,-3.5055,-3.5258,-3.5284,-3.5197,-3.5209,-3.5284,-3.5274,-3.5507,-3.5544,-3.5415,-3.5416,-3.5417,0,-3.2922,-3.3046,-3.3277,-3.338,-3.3487,-3.3652,-3.3768,-3.3905,-3.4022,-3.4235,-3.4329,-3.452,-3.4681,-3.4972,-3.5121,-3.5305,-3.5336,-3.5405,-3.5364,-3.5327,-3.5336,-3.5327,-3.5339,-3.541,-3.541,-3.5411,-3.5412,0,-3.3056,-3.312,-3.3283,-3.3471,-3.3607,-3.3761,-3.3918,-3.3997,-3.4162,-3.4288,-3.4479,-3.4603,-3.4848,-3.5037,-3.5236,-3.5347,-3.5407,-3.5423,-3.5452,-3.5419,-3.5363,-3.5394,-3.5211,-3.5417,-3.5417,-3.5416,-3.5416,-3.5416,-3.3131,-3.3245,-3.3425,-3.3604,-3.3736,-3.388,-3.4003,-3.4131,-3.4292,-3.4502,-3.4574,-3.477,-3.4946,-3.522,-3.5332,-3.5488,-3.5488,-3.553,-3.5541,-3.5549,-3.5545,-3.5339,-3.5525,-3.5525,-3.5525,-3.5525,-3.5525,0,-3.3269,-3.3389,-3.3552,-3.3768,-3.3909,-3.3953,-3.4128,-3.4243,-3.4415,-3.4574,-3.473,-3.4948,-3.5132,-3.5296,-3.5486,-3.5579,-3.5611,-3.5625,-3.5619,-3.5643,-3.5534,-3.549,-3.5595,-3.5595,-3.5595,-3.5595,-3.5595,-3.5595,-3.3357,-3.3551,-3.3636,-3.3897,-3.4017,-3.421,-3.4306,-3.4439,-3.4566,-3.4806,-3.4959,-3.5065,-3.5226,-3.543,-3.56,-3.5643,-3.5709,-3.5715,-3.5765,-3.566,-3.5651,-3.5642,-3.5601,-3.5728,-3.5728,-3.5861,-3.5862,-3.5863]},{"header":{"parameterUnit":"m.s-1","parameterCategory":1,"la1":30.2991,"la2":30.254,"lo1":-89.0895,"lo2":-89.0444,"dy":0.0017,"dx":0.0017,"nx":28,"ny":28,"refTime":"2024-10-04T03:00:00:Z","depth":0,"parameterNumber":3,"parameterNumberName":"V-component_of_WINDS"},"data":[0,0,0,0,0,0,0,0,0,0,0,0,0,0,0,0,0,0,0,0,0,0,0,0,0,0,0,0,0,0,0,0,0,0,0,0,0,0,0,0,0,0,0,0,0,0,0,0,0,0,0,0,0,0,0,0,0,0,0.0714,0.0716,0,0.0853,0.0855,0.0856,0.0867,0.0866,0.0864,0.0863,0.1004,0.1009,0.1014,0,0,0,0,0,0,0,0,0,0,0,0,0,0.0462,0.0466,0.0714,0.0716,0.0718,0.0853,0.0855,0.0857,0.0868,0.0866,0.0864,0.0862,0.1002,0.1008,0.1014,0,0,0,0,0,0,0,0,0,0,0,0,0,0.0583,0.0468,0.0714,0.0739,0.0743,0.0852,0.0855,0.0857,0.0868,0.0866,0.0863,0.0861,0.1,0.1007,0.1015,0.1108,0,0,0.1039,0.1042,0,0,0,0,0,0,0,0,0.0576,0.0592,0.0734,0.0738,0.0742,0.0841,0.0817,0.0941,0.0868,0.082,0.0863,0.086,0.0951,0.0963,0.0994,0.1114,0.112,0.1039,0.1044,0.1047,0.1049,0,0,0,0,0,0,0,0.0568,0.0586,0.0769,0.0736,0.0741,0.0745,0.076,0.0841,0.0897,0.0824,0.0826,0.0842,0.0953,0.0986,0.0997,0.1123,0.1039,0.1046,0.1051,0.1054,0.1334,0.1337,0,0,0,0,0,0,0.0554,0.0579,0.0765,0.0773,0.0652,0.0752,0.0768,0.0811,0.0896,0.0907,0.0844,0.0842,0.0974,0.0988,0.1002,0.1121,0.1047,0.1054,0.1059,0.1331,0.1335,0.1338,0,0,0,0,0,0,0.0549,0.0571,0.0759,0.0677,0.0701,0.0758,0.0807,0.0815,0.0848,0.091,0.0921,0.0867,0.0973,0.0991,0.1083,0.1126,0.1058,0.1065,0.1328,0.1332,0.1336,0.1356,0,0,0,0,0,0,0.0542,0.0569,0.0603,0.0677,0.0705,0.0837,0.0809,0.0819,0.0862,0.0861,0.0935,0.0945,0.0972,0.1072,0.1091,0.1135,0.1071,0.1324,0.133,0.1335,0.1352,0.136,0.1368,0,0,0,0,0,0.0533,0.0601,0.0605,0.0627,0.075,0.0839,0.0855,0.0885,0.0865,0.0902,0.0943,0.0943,0.1118,0.1081,0.1103,0.115,0.1322,0.1328,0.1334,0.1348,0.1358,0.1367,0,0,0,0,0,0,0.0528,0.0611,0.0616,0.0711,0.0768,0.0841,0.0887,0.0894,0.0958,0.0954,0.0989,0.1006,0.1098,0.1133,0.109,0.1248,0.1218,0.1229,0.1221,0.1231,0.1239,0.1229,0.1077,0,0,0,0,0,0.0539,0.0604,0.0673,0.075,0.0779,0.0828,0.0868,0.0887,0.0948,0.0971,0.1019,0.1078,0.1147,0.1191,0.1257,0.1357,0.1376,0.1401,0.1409,0.1415,0.1424,0.1486,0.1499,0.1358,0.1358,0.1358,0,0,0.056,0.0613,0.0652,0.0751,0.0797,0.0866,0.0848,0.0919,0.0972,0.0982,0.1073,0.1111,0.1179,0.1277,0.1323,0.1309,0.1468,0.1423,0.1428,0.1434,0.1494,0.1507,0.1519,0.1363,0.1362,0.1361,0,0,0.0634,0.068,0.0752,0.08,0.0873,0.0906,0.0924,0.0997,0.1023,0.1116,0.1127,0.119,0.1306,0.1356,0.1397,0.1499,0.1503,0.1519,0.156,0.162,0.1631,0.1641,0.1681,0.1694,0.1528,0.1528,0.1528,0,0.0651,0.0754,0.0787,0.0861,0.0906,0.0922,0.0997,0.1042,0.1132,0.1164,0.1148,0.1299,0.1346,0.1459,0.1484,0.1516,0.1539,0.151,0.1627,0.1637,0.1647,0.1685,0.17,0.153,0.153,0.1529,0.1529,0,0.0774,0.0846,0.0896,0.0985,0.1036,0.1109,0.1156,0.1204,0.1221,0.1257,0.1354,0.1412,0.1493,0.1521,0.1536,0.1638,0.1628,0.1619,0.159,0.1662,0.1698,0.1713,0.1532,0.1532,0.1531,0.1531,0,0,0.0845,0.0957,0.0975,0.1018,0.1102,0.1159,0.1236,0.1317,0.136,0.1423,0.149,0.1592,0.1586,0.1633,0.1655,0.1706,0.1789,0.1692,0.1694,0.171,0.191,0.1917,0.1934,0.1793,0.1796,0.1798,0.1906,0,0.093,0.1068,0.1103,0.1221,0.1291,0.131,0.1378,0.1438,0.1476,0.1541,0.1583,0.1656,0.1641,0.167,0.1722,0.1768,0.183,0.176,0.1858,0.1861,0.1841,0.1952,0.1959,0.2057,0.192,0.1922,0.1924,0,0.1047,0.1117,0.1242,0.1323,0.1354,0.1414,0.1495,0.1557,0.1627,0.1652,0.1707,0.1726,0.181,0.1777,0.1895,0.1848,0.189,0.192,0.1924,0.1935,0.1897,0.1968,0.2088,0.2104,0.1946,0.1944,0.1943,0,0.1091,0.1215,0.1308,0.1344,0.144,0.1483,0.1525,0.1594,0.1642,0.1713,0.1746,0.1825,0.1869,0.1931,0.1972,0.1944,0.2089,0.2058,0.2113,0.2112,0.2142,0.214,0.2273,0.2167,0.2167,0.2167,0.2166,0,0.1183,0.126,0.133,0.1386,0.1475,0.1517,0.1603,0.1646,0.1708,0.1776,0.1797,0.186,0.191,0.1981,0.2013,0.2109,0.2127,0.2151,0.2159,0.215,0.2148,0.2179,0.2174,0.2171,0.217,0.2169,0.2168,0,0.1245,0.1295,0.1398,0.1483,0.1506,0.1568,0.1641,0.1699,0.1739,0.1825,0.1848,0.1911,0.1996,0.2044,0.2149,0.2172,0.228,0.2283,0.2256,0.226,0.2314,0.2309,0.2472,0.2498,0.2373,0.2374,0.2375,0,0.1302,0.1362,0.1455,0.1503,0.1547,0.1622,0.1674,0.1719,0.1772,0.1862,0.191,0.1997,0.2068,0.2204,0.226,0.2343,0.235,0.2402,0.2363,0.2354,0.2355,0.2352,0.236,0.2409,0.241,0.2411,0.2412,0,0.1398,0.1421,0.1494,0.1579,0.1641,0.1708,0.1776,0.1814,0.1871,0.193,0.2019,0.2075,0.2187,0.2274,0.2363,0.2408,0.2421,0.2424,0.2442,0.2434,0.2417,0.243,0.2277,0.242,0.2419,0.2418,0.2418,0.2418,0.1461,0.1517,0.1594,0.1677,0.1734,0.1798,0.1858,0.1909,0.1983,0.2079,0.2101,0.2196,0.2271,0.2392,0.2441,0.2517,0.2507,0.2531,0.2538,0.2544,0.2548,0.2405,0.2532,0.2532,0.2532,0.2532,0.2532,0,0.156,0.1612,0.1688,0.1784,0.1851,0.186,0.1937,0.1992,0.2076,0.2145,0.2217,0.2323,0.2409,0.2475,0.2564,0.2613,0.2622,0.2635,0.2633,0.2644,0.2549,0.2527,0.2627,0.2627,0.2627,0.2627,0.2627,0.2627,0.162,0.1718,0.1752,0.188,0.1932,0.2026,0.207,0.2131,0.2187,0.2304,0.2378,0.242,0.249,0.2586,0.2667,0.2685,0.2718,0.2731,0.2749,0.266,0.265,0.264,0.2619,0.2737,0.2737,0.2838,0.2839,0.284]}]]